User: anonymous   Login
Location: Observatorio Las Palmas
(29.0667°N, 110.9333°W)
Time: 19:20:07
(UTC-07:00)
Language:

NOAA 19 - Orbit

View from above orbital plane
View from above orbital plane
View from above satellite
View from above satellite

Ground track
Ground track

The orbit data is extracted from the following two-line orbital elements,

1 33591U 09005A   14356.52301367  .00000306  00000-0  19197-3 0  5064
2 33591 098.9691 301.2000 0013225 310.8130 181.0067 14.11839931302569
Epoch (UTC): 22 December 2014 12:33:08
Eccentricity: 0.0013225
inclination: 98.9691°
perigee height: 843 km
apogee height: 862 km
right ascension of ascending node: 301.2000°
argument of perigee: 310.8130°
revolutions per day: 14.11839931
mean anomaly at epoch: 181.0067°
orbit number at epoch: 30256

The dashed part of the orbit path shows where the satellite is in the earth's shadow,  

DLR